Regional Weather Roundup
Issued by NWS Charleston, SC

Current Version | Previous Version | Text Only | Print | Product List | Glossary Off
Versions: 1 2 3 4 5 6 7 8 9 10 11 12 13 14 15 16 17 18 19 20 21 22 23 24 25 26 27 28 29 30 31 32 33 34 35 36 37 38 39 40 41 42 43 44 45 46 47 48 49 50

000
ASUS42 KCHS 280125
RWRCHS

REGIONAL WEATHER ROUNDUP
NATIONAL WEATHER SERVICE CHARLESTON SC
900 PM EDT SUN JUL 27 2014

NOTE: "FAIR" INDICATES FEW OR NO CLOUDS BELOW 12,000 FEET WITH NO
SIGNIFICANT WEATHER AND/OR OBSTRUCTIONS TO VISIBILITY.

NOT ALL STATIONS ARE QUALITY CONTROLLED BY THE NATIONAL
WEATHER SERVICE. USE DATA WITH CAUTION...ESPECIALLY
DEWPOINT OBSERVATIONS.

SCZ027-030-031-034>040-042>050-280200-
...SOUTH CAROLINA...

CITY           SKY/WX    TMP DP  RH WIND       PRES   REMARKS
N CHARLESTON   PTCLDY    85  74  69 S7        29.91S HX  92
WATERFRONT PRK   N/A     86 N/A N/A SW10        N/A
FORT JOHNSON   NOT AVBL
MOUNT PLEASANT FAIR      84  81  89 SW8       29.91R HX  98
JOHNS ISLAND   CLEAR     86  79  79 SW5       29.92S HX  99
PINOPOLIS        N/A     90  73  58 SW6       29.81F HX  98
MONCKS CORNER    N/A     84  77  79 CALM      29.90S HX  94
SUMMERVILLE    NOT AVBL
BEAUFORT MCAS  CLEAR     86  75  69 W7        29.93S HX  95
BEAUFORT ARPT  FAIR      86  75  70 SW3       29.93R HX  95
HILTON HEAD IS CLEAR     84  79  84 CALM      29.95S HX  96
GEORGETOWN     NOT AVBL
WALTERBORO     CLEAR     86  70  58 SW5       29.92S HX  90
ORANGEBURG     PTCLDY    85  73  67 SW8       29.90S HX  91
BARNWELL       FAIR      86  73  66 SW5       29.92S HX  93
AIKEN          FAIR      86  73  66 SW8       29.95S HX  93
MANNING        FAIR      88  75  66 SW6       29.89S HX  97
KINGSTREE      NOT AVBL
COLUMBIA       MOCLDY    90  71  53 SW8       29.88R HX  96
SUMTER         MOCLDY    86  75  68 SW9       29.86S HX  94
FLORENCE       MOCLDY    85  73  67 S7        29.85S HX  91
MYRTLE BEACH   CLEAR     88  77  70 SW10      29.88R HX 100
N MYRTLE BEACH PTCLDY    85  79  82 SW18      29.88R HX  98

$$

GAZ063-065-086>088-099>101-113>116-118-119-134-136>141-150-280200-
...GEORGIA...

CITY           SKY/WX    TMP DP  RH WIND       PRES   REMARKS
SAVANNAH ARPT  PTCLDY    88  71  57 SW3       29.95R HX  94
HUNTER AAF     CLEAR     85  73  67 SW2       29.93R HX  92
FORT STEWART   CLEAR     84  74  72 CALM      29.94R HX  92
STATESBORO     NOT AVBL
SYLVANIA       CLEAR     85  77  77 SW3       29.95R HX  95
CLAXTON        FAIR      82  81  94 CALM      29.95S HX  95
THOMSON        MOCLDY    86  79  78 S3        29.96S HX 100
AUGUSTA-BUSH   MOCLDY    84  73  69 S3        29.91R HX  90
AUGUSTA-DANIEL MOCLDY    89  72  56 SW3       29.93S HX  96
SWAINSBORO     FAIR      90  77  66 CALM      29.96S HX 102
VIDALIA          N/A     86  73  66 CALM      29.97R HX  93
ALMA           CLEAR     88  70  55 SW3       29.96R HX  93
WAYCROSS       CLEAR     88  76  68 SW5       29.98R HX  98
JESUP          NOT AVBL
BRUNSWICK      PTCLDY    86  72  62 SW6       29.97R HX  92
SAINT SIMONS   PTCLDY    88  73  61 SW7       29.96R HX  95

$$

SCZ027-028-034-036>038-045-046-048>050-GAZ119-141-280200-
...LAKE AND SUPPLEMENTAL COASTAL OBSERVATIONS...

STATION/POSITION TIME  TEMP    WIND        PRES    WAVE   SWELL
                       AIR SEA DIR/SP/G            HT/PER HT/PER/DIR
                 (UTC) (F)     (DEG/KT/KT) (MB)    (FT/S) (FT/S/D)
UPR LAKE MARION  NOT AVBL
WINYAH BAY       0100   85     210/  9     1012.0S
LAKE MURRAY      0000   90     230/ 10/ 13 1010.8S
ACE BASIN NERRS  0100   86        CALM     1013.0S
FORT PULASKI     0100   89     220/  3/  4 1014.2R
SAPELO ISLAND    0100   88     210/  7     1015.0S

$$

ANZ835-935-AMZ111-154-330-350-352-354-374-450-454-472-280200-
...C-MAN AND BUOY OBSERVATIONS...

STATION/POSITION TIME  TEMP    WIND        PRES    WAVE   SWELL
                       AIR SEA DIR/SP/G            HT/PER HT/PER/DIR
                 (UTC) (F)     (DEG/KT/KT) (MB)    (FT/S) (FT/S/D)
FOLLY BEACH CMAN 0100   85     220/ 16/ 19 1013.5F
BUOY 41004       0100   84 84  210/ 17/ 19 1012.2R   3/ 4   2/11
BUOY 41008       0100   86 85  190/ 16/ 19 1014.1R   2/ 4
5E ST. MARYS GA  0100      86                N/A     1/11
FRYING PAN BUOY  NOT AVBL
BUOY 41025       0100          VRB 17/ 21  1010.0F   3/11   2/160/11
CAPE LOOKOUT NC  0100   82     220/ 12/ 15 1010.6R
BUOY 41002       0047   82 81  240/ 17/ 19 1015.5R   4/ 9   3/140/ 9
BUOY 41010       0100   84 84  200/ 14/ 16 1017.4F   3/10   3/140/10
BUOY 41012       NOT AVBL
ST AUGUSTINE FL  0100   86     220/  7/  9 1016.7R
CAPERS NEARSHORE 0000   85     220/ 17/ 21   N/A
FRIPP NEARSHORE  NOT AVBL


$$


USA.gov is the U.S. government's official web portal to all federal, state and local government web resources and services.